Regional Weather Roundup
Issued by NWS

Home | Current Version | Previous Version | Text Only | Print | Product List | Glossary On
Versions: 1 2 3 4 5 6 7 8 9 10 11 12 13 14 15 16 17 18 19 20 21 22 23 24 25 26 27 28 29 30 31 32 33 34 35 36 37 38 39 40 41 42 43 44 45 46 47 48 49 50
000
ASUS45 KSLC 231310
RWRUT

UTAH REGIONAL WEATHER ROUNDUP
NATIONAL WEATHER SERVICE SALT LAKE CITY UT
700 AM MDT TUE MAY 23 2017

UTZ001>011-023>025-231400-

NORTHERN UTAH

CITY           SKY/WX    TMP DP  RH WIND       PRES   REMARKS
BRIGHAM CITY   CLEAR     50  42  74 NW5       30.19S
DUGWAY         PTCLDY    45  36  69 E2        30.18
HILL AFB       CLEAR     56  41  57 E13       30.20R
LOGAN          CLEAR     48  44  86 CALM      30.22R
OGDEN          CLEAR     54  41  61 SE9       30.19R
SALT LAKE CITY PTCLDY    59  43  55 S12       30.18R
TOOELE VALLEY  CLEAR     52  41  66 S9        30.19R
WENDOVER       PTCLDY    60  38  43 CALM      30.18R
HEBER CITY     CLEAR     45  37  76 CALM      30.27S
WEST JORDAN    CLEAR     57  49  74 S6        30.21R

$$

UTZ011>015-024>027-231400-

CENTRAL/NORTHEAST UTAH

CITY           SKY/WX    TMP DP  RH WIND       PRES   REMARKS
PROVO AIRPORT  CLEAR     53  41  63 SW7       30.23R
MOAB/CANYONLAN CLEAR     56  26  31 NE8       30.23R
DELTA          CLEAR     45  41  87 NE3       30.20S
PRICE          CLEAR     48  32  53 N7        30.29R
ROOSEVELT      SUNNY     41  34  75 CALM      30.34S
VERNAL         SUNNY     40  36  86 CALM      30.32R

$$

UTZ013>016-019>022-027-231400-

SOUTHERN UTAH

CITY           SKY/WX    TMP DP  RH WIND       PRES   REMARKS
BRYCE CANYON   PTCLDY    34  27  75 CALM      30.34R
CEDAR CITY     CLEAR     41  32  70 S5        30.23R
MILFORD        CLEAR     43  32  65 S7        30.21R
ST GEORGE      SUNNY     61  29  29 E6        30.11R
HANKSVILLE     CLEAR     50  32  50 NW3       30.27R
BLANDING       CLEAR     51  34  51 NW9       30.29R

$$

REGIONAL REPORTS     COLORADO/ARIZONA

CITY           SKY/WX    TMP DP  RH WIND       PRES   REMARKS
CRAIG, CO      CLOUDY    36  32  85 W3        30.36R
GRAND JUNCTION SUNNY     46  35  65 CALM      30.28R
RIFLE, CO      SUNNY     39  34  82 NE5       30.31R
MONTROSE, CO   PTSUNNY   46  34  62 W6        30.30R
CORTEZ, CO     SUNNY     52  35  52 NW7       30.21R
COLORADO CITY    N/A     46  30  53 S3        30.22R
PAGE, AZ       CLEAR     63  34  33 CALM      30.18R
GRAND CANYON   PTCLDY    34  26  72 CALM      30.27R
KINGMAN, AZ    CLEAR     61  26  26 SE5       30.07R
FLAGSTAFF, AZ  CLEAR     55  25  31 NE14      30.27R

$$

REGIONAL REPORTS    NEVADA/IDAHO/WYOMING

CITY           SKY/WX    TMP DP  RH WIND       PRES   REMARKS
LAS VEGAS, NV  CLEAR     75  32  20 W3        30.00R
ELY, NY        PTCLDY    35  25  66 S10       30.28S WCI  27
ELKO, NV       CLEAR     44  38  79 E3        30.24S
POCATELLO, ID  CLEAR     43  39  86 CALM      30.22S
BURLEY, ID     CLEAR     48  42  80 CALM      30.18S
EVANSTON, WY   CLOUDY    42  37  82 SE5       30.32S
ROCK SPRINGS,  CLOUDY    36  34  92 S5        30.33S WCI  32
KEMMERER, WY     N/A     36  34  93 N6        30.34S WCI  31

$$



USA.gov is the U.S. government's official web portal to all federal, state and local government web resources and services.